Regional Weather Roundup
Issued by NWS

Home | Current Version | Previous Version | Graphics & Text | Print | Product List | Glossary On
Versions: 1 2 3 4 5 6 7 8 9 10 11 12 13 14 15 16 17 18 19 20 21 22 23 24 25 26 27 28
000
ASUS45 KBOI 070310
RWRID

IDAHO REGIONAL WEATHER ROUNDUP
NATIONAL WEATHER SERVICE BOISE ID
800 PM MST TUE DEC 06 2016

NOTE: "FAIR" INDICATES FEW OR NO CLOUDS BELOW 12000 FEET
WITH NO SIGNIFICANT WEATHER AND/OR OBSTRUCTIONS TO VISIBILITY

IDZ012-014-070400-
SOUTHWEST IDAHO


CITY           SKY/WX    TMP DP  RH WIND       PRES   REMARKS
BOISE          PTCLDY    21  18  88 W7        30.06R WCI  12
CALDWELL       PTCLDY    15  13  91 CALM      30.10R
MOUNTAIN HOME  PTCLDY    17  16  96 NW8       30.04R WCI   6
$$

IDZ016-017-070400-
SOUTHCENTRAL IDAHO


CITY           SKY/WX    TMP DP  RH WIND       PRES   REMARKS
BURLEY         CLOUDY    19  16  88 W8        29.95R WCI   9
JEROME         CLOUDY    19  18  95 SW8       29.97R WCI   9
TWIN FALLS     PTCLDY    17  14  88 SW10      29.97R WCI   5
$$

IDZ019>023-070400-
SOUTHEAST IDAHO


CITY           SKY/WX    TMP DP  RH WIND       PRES   REMARKS
IDAHO FALLS    LGT SNOW  17  12  80 N9        29.90R WCI   6
POCATELLO      FLURRIES  12  10  92 W8        29.93S WCI   0
REXBURG        CLOUDY    14  10  84 NE3       29.89R
$$

IDZ006-010-011-018-031-032-070400-
CENTRAL IDAHO MOUNTAINS


CITY           SKY/WX    TMP DP  RH WIND       PRES   REMARKS
MCCALL         PTCLDY    10   7  87 CALM      29.91R
HAILEY         PTCLDY     9   7  92 NW7       29.89R WCI  -3
STANLEY          N/A      5   1  83 CALM      29.85R
SALMON         CLOUDY    10   9  92 CALM      29.99R
CHALLIS        CLOUDY    14  11  87 CALM      29.91R
$$

IDZ002-004-006-007-026-070400-
NORTHERN IDAHO


CITY           SKY/WX    TMP DP  RH WIND       PRES   REMARKS
LEWISTON       CLOUDY    27  20  75 W10       30.17R WCI  17
LOWELL         NOT AVBL
COEUR D`ALENE  CLEAR     20  13  74 CALM      30.14R
MULLAN PASS    LGT SNOW   7   4  87 CALM      29.89R FOG
$$




USA.gov is the U.S. government's official web portal to all federal, state and local government web resources and services.